Wind_Speed
75 74 80 84 89 92 96 99 97 96 105 104 90 87 78 81 77 74 71 64 63 60 57 53 48 46 46 41 37 40 40 39 38 37 38 40 40 35 28 20 21 23 25 27
73 73 76 79 85 90 92 93 94 103 110 98 85 82 82 80 81 76 72 69 65 60 59 56 51 49 48 45 39 42 42 43 40 36 40 40 44 40 35 28 24 28 28 32
72 72 73 76 81 85 90 91 95 107 108 86 89 88 82 79 80 80 74 71 68 61 61 58 56 53 52 49 44 46 44 43 40 37 38 41 42 44 39 32 21 31 34 36
70 71 72 73 77 81 87 89 93 93 85 77 81 84 81 80 80 79 77 72 69 61 60 60 59 55 52 50 49 48 44 39 40 40 40 41 42 43 48 34 28 26 39 38
67 68 70 71 74 80 80 84 84 83 79 81 86 85 81 77 79 80 75 69 64 61 59 60 57 54 52 49 46 44 43 40 42 41 42 42 41 49 46 41 32 27 33 36
65 67 69 70 69 71 68 76 79 80 79 83 87 81 79 77 77 75 69 68 69 64 63 64 58 54 50 47 46 46 43 42 44 44 44 43 39 50 51 44 39 32 31 34
60 62 65 65 62 61 67 75 78 76 78 83 83 87 80 80 79 80 74 71 69 68 69 63 58 55 53 51 49 47 45 45 46 46 47 42 48 53 54 47 43 36 30 36
55 57 60 59 55 59 65 73 71 72 77 85 89 90 83 80 84 84 79 76 75 73 67 62 59 57 56 53 51 49 48 47 49 49 48 43 41 54 51 50 44 42 37 32
47 51 53 55 53 58 66 66 65 69 78 82 89 94 90 82 82 90 83 80 75 76 71 65 60 58 58 56 52 49 52 52 52 50 48 39 41 47 51 49 46 42 32 30
46 48 50 52 52 61 64 62 62 67 77 82 86 93 93 90 85 86 88 85 81 79 71 65 61 57 55 53 49 49 52 55 53 50 46 41 41 48 56 47 47 49 41 32
45 47 48 49 55 57 55 56 58 64 72 78 84 93 98 93 89 87 84 90 82 75 68 62 59 58 56 56 52 52 50 45 46 49 48 40 47 46 48 51 52 43 42 36
42 44 45 48 50 50 53 53 56 63 70 75 81 90 97 95 92 92 87 84 83 76 72 65 61 59 58 55 50 50 49 49 51 52 50 47 48 49 48 53 51 46 40 36
37 38 42 44 45 49 51 54 56 61 68 78 83 94 99 98 95 93 88 84 82 76 73 69 67 62 60 58 54 52 52 53 53 55 49 46 46 49 53 54 50 45 41 41
34 36 37 40 45 48 51 53 56 61 69 78 86 90 100 101 98 92 87 84 78 76 72 68 63 58 57 54 52 49 47 47 46 44 46 52 52 52 53 53 49 46 46 47
32 34 37 40 42 44 46 48 52 57 64 71 81 90 97 99 97 92 89 84 79 75 69 64 58 55 53 53 51 46 49 49 50 49 53 55 55 55 57 54 54 49 48 52
29 30 32 33 36 38 40 44 49 54 60 70 74 81 90 93 94 93 90 86 80 74 68 65 61 58 56 54 49 49 53 54 54 54 58 58 59 58 61 59 58 52 51 54
26 27 29 32 37 40 45 53 56 58 60 67 77 81 87 94 95 93 90 84 77 73 70 64 62 60 59 57 53 54 56 57 58 59 60 59 63 64 64 64 61 53 52 55
26 28 32 35 36 42 46 48 49 53 58 65 73 76 86 92 95 93 89 83 79 75 71 67 66 66 63 57 54 56 57 59 61 62 63 65 67 66 65 64 58 57 56 59
25 27 28 30 34 37 39 42 47 52 57 61 66 71 75 83 88 89 87 82 79 76 72 70 70 67 62 56 59 60 62 63 64 64 69 70 67 66 64 61 59 59 58 59
24 22 23 25 28 31 31 37 41 45 46 52 59 64 72 76 81 84 84 80 75 84 80 74 68 62 61 61 63 64 66 67 69 70 70 66 65 64 62 56 52 54 57 59
25 30 30 29 28 30 30 32 37 41 46 53 61 64 72 77 83 83 80 79 83 79 69 68 65 62 64 66 70 71 71 71 71 67 65 61 61 59 54 46 47 49 51 54
24 27 30 35 38 40 42 43 45 47 49 53 58 64 69 74 78 78 76 75 72 69 67 66 63 64 66 68 69 68 67 62 60 59 59 56 57 51 47 49 50 51 56 61
31 36 39 41 42 42 43 43 42 45 50 54 57 59 59 61 64 65 67 68 68 67 68 67 65 65 67 66 60 57 59 57 55 55 55 54 53 51 50 51 57 61 63 66
27 34 43 44 48 48 48 50 52 53 54 53 51 51 51 52 55 59 62 64 62 63 63 62 62 60 60 56 57 59 59 56 58 52 55 52 49 52 55 61 64 68 68 70
34 34 39 37 37 38 41 43 43 41 41 41 41 42 45 48 51 53 55 54 53 53 56 59 58 58 59 61 62 61 59 56 54 51 55 57 56 56 61 66 69 71 74 76
28 28 36 39 38 38 38 37 36 37 39 41 42 45 46 47 48 51 51 50 51 55 57 57 59 60 60 62 62 58 58 59 61 61 64 60 64 67 70 71 71 73 78 82
14 23 21 24 27 29 30 31 32 36 39 40 41 46 48 48 48 49 51 53 54 57 59 59 59 59 56 57 57 57 60 61 60 61 62 65 69 74 77 79 82 85 86 84
Wind_Direction
241 235 235 230 230 229 229 228 227 223 226 227 223 219 224 225 228 227 229 233 236 241 244 249 252 254 257 265 270 278 285 292 299 303 311 320 330 345 341 278 253 240 243 250
238 235 232 230 227 226 227 227 226 224 227 227 224 217 219 225 225 225 226 231 235 238 242 245 247 253 258 262 268 273 283 287 294 298 306 315 323 333 338 325 263 245 248 255
236 234 231 229 227 224 224 223 223 223 226 224 221 216 217 223 225 224 225 230 231 235 240 242 246 250 254 261 266 273 280 286 288 293 303 311 318 323 331 330 285 256 250 255
234 230 229 228 226 224 222 222 223 223 226 224 219 218 214 217 222 224 224 228 231 234 239 242 245 247 253 259 266 273 277 277 283 292 300 308 314 318 319 330 312 262 256 258
230 227 226 227 224 224 221 222 222 221 220 217 214 216 212 217 221 223 223 226 231 233 235 236 239 242 249 256 262 263 266 273 279 287 296 304 310 306 318 322 321 286 254 262
224 225 223 226 223 223 221 221 221 217 214 217 213 210 211 213 217 220 222 222 227 229 232 232 235 240 248 253 255 259 266 272 276 285 291 298 294 308 306 316 321 310 265 258
220 221 221 222 221 219 216 219 218 211 213 212 208 207 207 209 212 217 217 221 227 229 230 232 236 240 245 248 253 261 266 273 278 282 290 295 299 300 307 312 316 314 283 258
216 216 216 218 214 214 215 217 216 209 209 208 206 204 203 208 210 213 216 217 222 227 227 230 234 237 243 247 252 259 269 271 277 283 289 291 284 301 303 308 313 311 308 282
209 210 212 214 210 211 214 215 213 206 207 207 203 202 202 206 213 216 217 218 221 225 225 226 230 236 241 246 254 260 267 274 276 281 285 286 282 294 299 307 304 317 306 280
203 204 206 208 206 210 213 210 208 204 205 205 202 201 202 204 210 215 216 219 220 223 225 226 231 237 244 248 254 261 266 273 276 276 280 283 279 287 298 299 302 308 303 287
198 199 202 204 206 209 210 209 204 202 204 203 201 200 201 203 208 214 215 221 222 225 228 232 235 239 244 249 254 261 263 262 269 275 278 279 281 288 289 294 299 303 299 288
193 195 199 202 204 204 207 205 201 201 201 200 200 200 201 202 207 214 217 219 220 222 224 226 231 235 240 245 252 255 258 259 263 273 278 278 279 284 286 292 297 299 288 277
189 191 195 197 199 201 203 203 198 198 199 198 197 199 200 202 206 214 217 220 221 223 227 230 234 238 241 246 249 249 256 259 266 274 276 278 280 281 289 294 296 287 275 268
184 188 191 194 196 199 201 200 197 196 198 196 197 198 199 202 205 212 217 221 223 224 227 231 234 236 240 243 247 254 258 262 266 268 271 275 279 283 286 291 291 279 275 265
181 185 188 191 194 197 199 196 196 197 199 197 196 198 201 203 204 209 217 220 222 224 224 227 231 235 239 242 248 255 255 258 263 267 272 279 281 282 286 289 290 281 277 268
177 181 185 187 191 190 189 192 195 194 196 198 199 197 200 203 205 208 216 221 221 224 225 227 232 237 241 246 249 250 254 259 264 269 273 276 281 284 285 288 291 282 275 268
173 179 180 183 186 184 187 188 193 192 192 194 197 198 198 201 205 209 214 221 224 225 227 231 235 240 244 246 249 252 256 260 265 270 273 278 281 281 284 287 288 282 276 271
169 176 181 183 182 187 190 191 191 190 191 193 194 196 198 201 204 208 214 220 225 228 230 234 237 240 243 246 251 254 257 261 266 270 271 278 280 278 281 284 281 280 275 271
164 173 179 179 185 186 186 186 186 189 191 191 190 195 199 202 205 210 214 219 225 230 232 235 239 243 248 248 249 254 258 262 266 269 273 277 276 277 279 279 280 279 276 276
157 159 164 170 174 178 182 187 186 184 181 185 188 192 197 203 207 211 216 219 223 229 227 233 240 244 247 248 251 256 259 262 267 269 273 273 273 274 278 284 287 286 285 280
149 150 148 151 159 161 159 170 175 171 173 180 184 189 196 201 207 213 216 221 227 235 238 239 241 245 250 251 253 255 258 263 267 269 267 266 269 272 277 281 285 286 285 285
137 146 150 146 147 149 153 158 159 165 171 178 184 191 197 203 208 213 218 223 229 232 236 240 242 245 249 252 255 259 262 260 257 258 260 263 267 273 281 282 285 287 286 285
139 142 142 141 142 145 148 150 154 163 172 181 190 196 200 205 210 215 220 226 230 234 238 242 245 248 252 253 252 250 250 249 251 253 256 264 271 271 282 288 290 293 292 290
149 147 143 150 148 151 154 161 167 174 178 183 187 194 199 204 211 216 221 225 229 234 238 242 244 244 243 245 244 244 248 253 252 260 266 269 273 277 280 291 299 300 300 299
129 135 134 143 150 159 165 168 171 173 178 184 190 195 203 208 212 217 222 225 226 228 230 230 233 236 234 234 239 245 247 249 250 257 263 266 269 274 277 285 290 290 294 295
146 143 148 152 157 162 167 172 177 180 183 188 194 198 203 207 212 217 221 223 224 224 228 232 234 234 239 242 242 248 257 259 258 261 262 267 271 273 278 283 287 287 287 287
105 157 159 168 176 180 184 189 190 190 194 196 202 206 209 214 215 217 222 224 226 229 231 234 239 243 244 245 248 255 259 267 273 275 275 273 272 272 275 276 279 283 286 286
Height
10206 10220 10231 10245 10259 10275 10285 10309 10336 10361 10353 10367 10410 10451 10471 10481 10489 10501 10511 10520 10530 10539 10547 10554 10559 10562 10562 10568 10572 10572 10573 10575 10575 10574 10573 10571 10570 10568 10566 10563 10564 10562 10558 10556
10182 10195 10207 10221 10234 10249 10268 10288 10318 10325 10321 10350 10402 10435 10449 10462 10472 10485 10498 10507 10517 10526 10533 10542 10547 10548 10552 10557 10562 10563 10566 10566 10567 10567 10566 10565 10563 10562 10560 10557 10557 10555 10554 10549
10159 10172 10185 10199 10212 10227 10244 10263 10279 10286 10302 10360 10385 10408 10434 10449 10458 10469 10484 10493 10503 10512 10520 10528 10534 10536 10540 10547 10552 10554 10557 10558 10558 10558 10558 10557 10556 10554 10555 10552 10550 10549 10547 10544
10138 10152 10165 10178 10193 10207 10222 10242 10254 10284 10318 10344 10379 10399 10419 10429 10441 10454 10468 10480 10491 10500 10507 10514 10519 10524 10531 10537 10541 10545 10549 10549 10548 10548 10549 10550 10549 10546 10546 10546 10543 10541 10536 10538
10119 10134 10146 10159 10174 10186 10207 10229 10252 10279 10311 10336 10348 10377 10403 10418 10428 10438 10458 10469 10477 10484 10493 10498 10505 10513 10520 10526 10531 10535 10538 10540 10540 10540 10540 10540 10540 10536 10538 10538 10536 10531 10528 10527
10103 10116 10131 10145 10160 10179 10208 10223 10241 10266 10293 10310 10331 10367 10386 10403 10414 10426 10443 10452 10455 10471 10475 10480 10493 10501 10508 10515 10520 10524 10529 10530 10530 10531 10532 10533 10528 10529 10528 10530 10526 10523 10519 10516
10090 10104 10119 10132 10153 10179 10193 10202 10218 10249 10271 10287 10326 10347 10368 10385 10399 10406 10422 10432 10444 10452 10455 10470 10480 10489 10497 10505 10509 10515 10518 10519 10519 10521 10521 10523 10517 10516 10518 10519 10516 10514 10510 10507
10079 10094 10108 10125 10148 10165 10179 10186 10208 10236 10253 10275 10304 10328 10350 10365 10377 10387 10402 10412 10420 10431 10448 10460 10469 10479 10486 10494 10498 10504 10507 10506 10509 10511 10512 10513 10504 10505 10507 10508 10503 10502 10501 10500
10072 10087 10103 10120 10138 10154 10161 10175 10198 10223 10237 10260 10286 10310 10333 10352 10366 10372 10386 10398 10411 10419 10433 10446 10458 10468 10477 10482 10489 10491 10492 10494 10497 10500 10502 10503 10493 10494 10494 10498 10492 10493 10492 10490
10067 10082 10097 10114 10129 10138 10149 10170 10190 10208 10226 10245 10270 10296 10320 10333 10347 10358 10370 10380 10392 10403 10423 10439 10449 10458 10466 10471 10477 10479 10479 10480 10485 10486 10491 10492 10486 10485 10486 10487 10483 10479 10480 10478
10063 10078 10093 10107 10118 10131 10147 10164 10182 10199 10217 10237 10258 10277 10299 10320 10331 10341 10359 10358 10383 10403 10419 10432 10441 10450 10456 10459 10465 10468 10469 10467 10471 10474 10477 10482 10476 10477 10476 10473 10473 10473 10469 10468
10063 10075 10088 10101 10114 10130 10141 10157 10173 10187 10205 10228 10246 10268 10287 10305 10317 10321 10337 10357 10369 10386 10399 10417 10425 10435 10441 10449 10454 10454 10458 10458 10458 10463 10466 10467 10465 10465 10464 10463 10462 10461 10458 10457
10064 10076 10087 10099 10112 10123 10135 10148 10166 10181 10197 10212 10233 10252 10269 10289 10304 10311 10328 10342 10361 10380 10389 10401 10413 10425 10431 10438 10443 10442 10447 10447 10450 10452 10454 10453 10453 10452 10453 10453 10451 10448 10446 10444
10066 10077 10087 10099 10108 10118 10130 10144 10159 10171 10186 10200 10215 10240 10256 10274 10293 10308 10321 10331 10352 10366 10379 10392 10405 10414 10420 10425 10429 10434 10437 10439 10441 10442 10441 10438 10440 10440 10440 10440 10438 10434 10433 10431
10067 10077 10087 10096 10106 10118 10130 10144 10157 10171 10182 10199 10214 10229 10248 10268 10287 10301 10309 10323 10339 10354 10371 10385 10394 10401 10407 10412 10419 10428 10427 10427 10427 10429 10426 10426 10427 10426 10427 10426 10424 10422 10420 10418
10071 10079 10088 10098 10108 10118 10130 10142 10154 10168 10179 10196 10209 10226 10243 10264 10282 10294 10302 10313 10329 10346 10362 10374 10383 10389 10395 10403 10413 10414 10413 10414 10414 10416 10413 10413 10414 10413 10410 10411 10411 10408 10406 10405
10074 10081 10090 10098 10105 10116 10124 10133 10142 10154 10171 10188 10202 10218 10239 10258 10273 10287 10298 10310 10327 10341 10352 10365 10372 10378 10384 10394 10403 10400 10400 10400 10401 10401 10400 10401 10398 10399 10397 10395 10393 10392 10392 10391
10077 10083 10091 10099 10109 10117 10124 10134 10146 10159 10170 10184 10198 10220 10235 10251 10264 10279 10292 10307 10319 10332 10345 10355 10361 10365 10374 10388 10390 10387 10387 10386 10386 10386 10385 10386 10385 10385 10383 10381 10379 10378 10377 10376
10082 10089 10096 10105 10113 10120 10129 10139 10147 10158 10169 10186 10204 10220 10238 10253 10265 10277 10287 10302 10313 10325 10336 10342 10345 10356 10370 10377 10372 10371 10371 10371 10370 10371 10370 10371 10370 10369 10369 10368 10366 10363 10362 10362
10086 10095 10104 10112 10120 10127 10137 10145 10155 10166 10177 10191 10207 10224 10237 10250 10264 10273 10284 10296 10303 10298 10316 10325 10337 10350 10353 10356 10356 10356 10355 10355 10355 10355 10355 10355 10354 10353 10353 10353 10352 10350 10348 10346
10096 10100 10107 10116 10124 10133 10141 10152 10162 10173 10184 10197 10209 10223 10235 10248 10257 10266 10277 10284 10287 10299 10315 10320 10330 10338 10337 10339 10338 10339 10339 10341 10342 10341 10340 10341 10340 10340 10341 10341 10338 10335 10332 10329
10108 10112 10116 10122 10130 10137 10145 10155 10163 10174 10189 10203 10214 10222 10230 10241 10250 10261 10273 10280 10289 10299 10304 10309 10319 10321 10321 10320 10323 10327 10328 10328 10326 10326 10326 10327 10326 10328 10328 10326 10323 10321 10318 10314
10113 10118 10124 10131 10138 10147 10155 10164 10176 10186 10195 10205 10214 10223 10235 10245 10255 10266 10270 10276 10285 10291 10295 10299 10306 10306 10306 10307 10308 10310 10312 10313 10314 10313 10313 10313 10314 10314 10311 10308 10308 10306 10301 10296
10125 10127 10132 10140 10145 10153 10162 10170 10178 10185 10195 10205 10216 10225 10234 10242 10249 10255 10261 10266 10275 10281 10286 10288 10291 10292 10292 10295 10296 10297 10298 10300 10301 10299 10300 10299 10299 10297 10293 10288 10284 10282 10279 10275
10143 10145 10152 10159 10165 10172 10177 10182 10190 10199 10206 10213 10220 10227 10233 10238 10242 10247 10252 10259 10264 10269 10271 10271 10274 10277 10279 10279 10281 10283 10285 10286 10288 10288 10286 10285 10285 10283 10281 10277 10274 10269 10261 10255
10157 10159 10163 10167 10172 10177 10183 10190 10196 10202 10206 10211 10217 10221 10226 10231 10236 10240 10245 10251 10254 10257 10258 10261 10262 10265 10268 10270 10270 10272 10273 10274 10274 10274 10272 10270 10270 10267 10263 10259 10254 10249 10244 10239
10168 10171 10175 10177 10181 10185 10190 10195 10199 10203 10207 10212 10216 10219 10222 10226 10231 10235 10238 10242 10245 10247 10249 10250 10252 10254 10256 10258 10259 10259 10258 10258 10258 10258 10256 10252 10250 10247 10243 10239 10234 10229 10223 10216